PTOGG SBTE-SBFZ

Flight info

Callsign PTOGG
Flight time 1h 39m
Altitude 9500
Route DOSVA DCT FLZ
Aircraft C208/L-SDFGR/C

Departure

Time 2026-04-26 20:03
Airport Senador Petrônio Portela Airport (SBTE)

Arrival

Time 2026-04-26 21:42
Airport Pinto Martins International Airport (SBFZ)
Time Latitude Longitude Altitude Speed Heading
2026-04-26 19:54 -5.06544 -42.82127 212 ft 0 kts 85°
2026-04-26 19:59 -5.06543 -42.82125 212 ft 1 kts 49°
2026-04-26 20:00 -5.06539 -42.82131 212 ft 4 kts 248°
2026-04-26 20:00 -5.06546 -42.82172 212 ft 0 kts 276°
2026-04-26 20:00 -5.06546 -42.82175 212 ft 3 kts 276°
2026-04-26 20:01 -5.06559 -42.82210 216 ft 3 kts 220°
2026-04-26 20:01 -5.06578 -42.82226 213 ft 3 kts 220°
2026-04-26 20:01 -5.06582 -42.82230 213 ft 0 kts 220°
2026-04-26 20:01 -5.06596 -42.82241 218 ft 7 kts 220°
2026-04-26 20:02 -5.06614 -42.82311 214 ft 14 kts 348°
2026-04-26 20:02 -5.06430 -42.82327 213 ft 49 kts 354°
2026-04-26 20:02 -5.05902 -42.82381 229 ft 97 kts 357°
2026-04-26 20:02 -5.05440 -42.82418 372 ft 106 kts 358°
2026-04-26 20:03 -5.04373 -42.82478 708 ft 120 kts
2026-04-26 20:03 -5.03645 -42.82061 914 ft 131 kts 58°
2026-04-26 20:03 -5.03538 -42.81233 1247 ft 122 kts 116°
2026-04-26 20:03 -5.04216 -42.80723 1602 ft 120 kts 160°
2026-04-26 20:04 -5.04956 -42.80357 1847 ft 128 kts 135°
2026-04-26 20:04 -5.05176 -42.79530 2151 ft 126 kts 81°
2026-04-26 20:04 -5.04877 -42.78700 2490 ft 127 kts 71°
2026-04-26 20:04 -5.04650 -42.77822 2717 ft 135 kts 83°
2026-04-26 20:05 -5.04443 -42.76897 2875 ft 139 kts 78°
2026-04-26 20:05 -5.04178 -42.75940 3019 ft 144 kts 76°
2026-04-26 20:05 -5.03896 -42.74962 3160 ft 147 kts 77°
2026-04-26 20:05 -5.03603 -42.73964 3287 ft 149 kts 76°
2026-04-26 20:06 -5.03314 -42.72973 3409 ft 150 kts 76°
2026-04-26 20:06 -5.03017 -42.71959 3536 ft 151 kts 76°
2026-04-26 20:06 -5.02718 -42.70945 3657 ft 151 kts 76°
2026-04-26 20:06 -5.02421 -42.69932 3778 ft 151 kts 76°
2026-04-26 20:07 -5.02126 -42.68925 3902 ft 151 kts 76°
2026-04-26 20:07 -5.01832 -42.67920 4016 ft 150 kts 76°
2026-04-26 20:07 -5.01536 -42.66914 4137 ft 150 kts 76°
2026-04-26 20:07 -5.01244 -42.65919 4259 ft 150 kts 76°
2026-04-26 20:08 -5.00950 -42.64914 4380 ft 149 kts 76°
2026-04-26 20:08 -5.00654 -42.63905 4500 ft 151 kts 76°
2026-04-26 20:08 -5.00361 -42.62908 4629 ft 151 kts 76°
2026-04-26 20:08 -5.00065 -42.61899 4743 ft 151 kts 76°
2026-04-26 20:09 -4.99768 -42.60887 4864 ft 151 kts 77°
2026-04-26 20:09 -4.99470 -42.59869 4987 ft 152 kts 76°
2026-04-26 20:09 -4.99173 -42.58852 5109 ft 152 kts 76°
2026-04-26 20:09 -4.98874 -42.57833 5228 ft 152 kts 76°
2026-04-26 20:10 -4.98574 -42.56814 5346 ft 152 kts 76°
2026-04-26 20:10 -4.98276 -42.55798 5468 ft 152 kts 76°
2026-04-26 20:10 -4.97977 -42.54780 5589 ft 152 kts 76°
2026-04-26 20:10 -4.97683 -42.53777 5710 ft 152 kts 76°
2026-04-26 20:11 -4.97383 -42.52754 5834 ft 153 kts 76°
2026-04-26 20:11 -4.97083 -42.51731 5954 ft 153 kts 76°
2026-04-26 20:11 -4.96784 -42.50713 6075 ft 152 kts 76°
2026-04-26 20:12 -4.96189 -42.48688 6319 ft 151 kts 76°
2026-04-26 20:12 -4.95892 -42.47677 6433 ft 151 kts 77°
2026-04-26 20:12 -4.95595 -42.46665 6547 ft 151 kts 76°
2026-04-26 20:12 -4.95300 -42.45664 6662 ft 151 kts 76°
2026-04-26 20:13 -4.95004 -42.44650 6775 ft 152 kts 76°
2026-04-26 20:13 -4.94705 -42.43633 6893 ft 151 kts 76°
2026-04-26 20:13 -4.94408 -42.42621 7008 ft 151 kts 76°
2026-04-26 20:13 -4.94110 -42.41607 7124 ft 152 kts 76°
2026-04-26 20:14 -4.93811 -42.40586 7242 ft 153 kts 76°
2026-04-26 20:14 -4.93510 -42.39562 7359 ft 153 kts 76°
2026-04-26 20:14 -4.93209 -42.38538 7478 ft 153 kts 76°
2026-04-26 20:14 -4.92908 -42.37512 7597 ft 153 kts 76°
2026-04-26 20:15 -4.92610 -42.36498 7713 ft 154 kts 76°
2026-04-26 20:15 -4.92307 -42.35467 7835 ft 154 kts 76°
2026-04-26 20:15 -4.92004 -42.34435 7954 ft 154 kts 76°
2026-04-26 20:15 -4.91701 -42.33403 8074 ft 154 kts 76°
2026-04-26 20:16 -4.91398 -42.32371 8191 ft 154 kts 76°
2026-04-26 20:16 -4.91099 -42.31355 8311 ft 154 kts 76°
2026-04-26 20:16 -4.90797 -42.30326 8433 ft 154 kts 76°
2026-04-26 20:16 -4.90494 -42.29295 8554 ft 154 kts 76°
2026-04-26 20:17 -4.90192 -42.28267 8677 ft 154 kts 76°
2026-04-26 20:17 -4.89888 -42.27235 8804 ft 154 kts 76°
2026-04-26 20:17 -4.89585 -42.26202 8928 ft 154 kts 76°
2026-04-26 20:17 -4.89384 -42.25517 9010 ft 155 kts 76°
2026-04-26 20:18 -4.88980 -42.24144 9174 ft 155 kts 75°
2026-04-26 20:18 -4.88677 -42.23110 9300 ft 154 kts 75°
2026-04-26 20:18 -4.88373 -42.22079 9424 ft 154 kts 76°
2026-04-26 20:18 -4.88067 -42.21039 9512 ft 157 kts 76°
2026-04-26 20:19 -4.87754 -42.19966 9527 ft 163 kts 75°
2026-04-26 20:19 -4.87431 -42.18863 9527 ft 166 kts 75°
2026-04-26 20:19 -4.87104 -42.17750 9535 ft 168 kts 75°
2026-04-26 20:19 -4.86772 -42.16624 9537 ft 168 kts 75°
2026-04-26 20:20 -4.86440 -42.15498 9526 ft 168 kts 75°
2026-04-26 20:20 -4.86112 -42.14383 9535 ft 169 kts 75°
2026-04-26 20:20 -4.85779 -42.13250 9533 ft 169 kts 75°
2026-04-26 20:20 -4.85446 -42.12116 9527 ft 169 kts 75°
2026-04-26 20:21 -4.85113 -42.10982 9530 ft 169 kts 75°
2026-04-26 20:21 -4.84779 -42.09849 9531 ft 169 kts 75°
2026-04-26 20:21 -4.84447 -42.08719 9531 ft 169 kts 75°
2026-04-26 20:21 -4.84118 -42.07601 9530 ft 169 kts 75°
2026-04-26 20:22 -4.83785 -42.06469 9526 ft 169 kts 75°
2026-04-26 20:22 -4.83452 -42.05338 9530 ft 169 kts 75°
2026-04-26 20:22 -4.83119 -42.04205 9533 ft 169 kts 75°
2026-04-26 20:22 -4.82786 -42.03072 9533 ft 169 kts 75°
2026-04-26 20:23 -4.82452 -42.01939 9521 ft 169 kts 75°
2026-04-26 20:23 -4.82118 -42.00806 9524 ft 169 kts 75°
2026-04-26 20:23 -4.81785 -41.99673 9525 ft 169 kts 75°
2026-04-26 20:23 -4.81452 -41.98541 9530 ft 169 kts 75°
2026-04-26 20:24 -4.81119 -41.97409 9535 ft 169 kts 75°
2026-04-26 20:24 -4.80784 -41.96271 9534 ft 170 kts 75°
2026-04-26 20:24 -4.80449 -41.95135 9531 ft 170 kts 75°
2026-04-26 20:24 -4.80119 -41.94014 9527 ft 169 kts 75°
2026-04-26 20:25 -4.79786 -41.92883 9525 ft 169 kts 75°
2026-04-26 20:25 -4.79564 -41.92128 9527 ft 169 kts 75°
2026-04-26 20:25 -4.79118 -41.90611 9528 ft 170 kts 75°
2026-04-26 20:25 -4.78783 -41.89473 9530 ft 170 kts 75°
2026-04-26 20:26 -4.78452 -41.88348 9532 ft 170 kts 75°
2026-04-26 20:26 -4.78116 -41.87209 9527 ft 170 kts 75°
2026-04-26 20:26 -4.77781 -41.86073 9529 ft 170 kts 75°
2026-04-26 20:26 -4.77447 -41.84937 9533 ft 170 kts 75°
2026-04-26 20:27 -4.77111 -41.83800 9531 ft 169 kts 75°
2026-04-26 20:27 -4.76778 -41.82665 9529 ft 170 kts 75°
2026-04-26 20:27 -4.76444 -41.81531 9525 ft 170 kts 75°
2026-04-26 20:27 -4.76108 -41.80393 9530 ft 170 kts 75°
2026-04-26 20:28 -4.75772 -41.79254 9533 ft 170 kts 75°
2026-04-26 20:28 -4.75438 -41.78119 9529 ft 170 kts 75°
2026-04-26 20:28 -4.75107 -41.76994 9526 ft 170 kts 75°
2026-04-26 20:28 -4.74770 -41.75851 9533 ft 170 kts 75°
2026-04-26 20:29 -4.74434 -41.74713 9529 ft 170 kts 75°
2026-04-26 20:29 -4.74100 -41.73576 9527 ft 170 kts 75°
2026-04-26 20:29 -4.73764 -41.72439 9525 ft 170 kts 75°
2026-04-26 20:29 -4.73425 -41.71299 9529 ft 170 kts 75°
2026-04-26 20:30 -4.73090 -41.70179 9524 ft 170 kts 75°
2026-04-26 20:30 -4.72751 -41.69045 9531 ft 170 kts 75°
2026-04-26 20:30 -4.72411 -41.67909 9531 ft 170 kts 75°
2026-04-26 20:30 -4.72073 -41.66776 9534 ft 170 kts 75°
2026-04-26 20:31 -4.71733 -41.65638 9538 ft 170 kts 75°
2026-04-26 20:31 -4.71393 -41.64500 9535 ft 170 kts 75°
2026-04-26 20:31 -4.71053 -41.63361 9537 ft 171 kts 75°
2026-04-26 20:31 -4.70711 -41.62219 9537 ft 171 kts 75°
2026-04-26 20:32 -4.70370 -41.61079 9534 ft 170 kts 75°
2026-04-26 20:32 -4.70035 -41.59957 9542 ft 170 kts 75°
2026-04-26 20:32 -4.69696 -41.58821 9532 ft 170 kts 75°
2026-04-26 20:32 -4.69355 -41.57684 9540 ft 170 kts 75°
2026-04-26 20:33 -4.69015 -41.56544 9536 ft 170 kts 75°
2026-04-26 20:33 -4.68675 -41.55405 9540 ft 170 kts 75°
2026-04-26 20:33 -4.68339 -41.54283 9537 ft 170 kts 75°
2026-04-26 20:33 -4.67999 -41.53149 9540 ft 170 kts 75°
2026-04-26 20:34 -4.67660 -41.52013 9535 ft 170 kts 75°
2026-04-26 20:34 -4.67320 -41.50875 9539 ft 170 kts 75°
2026-04-26 20:34 -4.66978 -41.49731 9541 ft 170 kts 75°
2026-04-26 20:34 -4.66638 -41.48593 9537 ft 170 kts 75°
2026-04-26 20:35 -4.66297 -41.47457 9542 ft 170 kts 75°
2026-04-26 20:35 -4.65962 -41.46335 9539 ft 170 kts 75°
2026-04-26 20:35 -4.65622 -41.45201 9544 ft 170 kts 75°
2026-04-26 20:35 -4.65284 -41.44066 9541 ft 170 kts 75°
2026-04-26 20:36 -4.64945 -41.42933 9543 ft 170 kts 74°
2026-04-26 20:36 -4.64604 -41.41794 9545 ft 171 kts 75°
2026-04-26 20:36 -4.64263 -41.40656 9543 ft 171 kts 75°
2026-04-26 20:36 -4.63921 -41.39511 9541 ft 171 kts 75°
2026-04-26 20:37 -4.63579 -41.38369 9543 ft 171 kts 75°
2026-04-26 20:37 -4.63241 -41.37239 9539 ft 171 kts 74°
2026-04-26 20:37 -4.62900 -41.36102 9536 ft 170 kts 75°
2026-04-26 20:37 -4.62560 -41.34966 9541 ft 170 kts 75°
2026-04-26 20:38 -4.62221 -41.33833 9549 ft 170 kts 75°
2026-04-26 20:38 -4.61882 -41.32699 9551 ft 170 kts 75°
2026-04-26 20:38 -4.61542 -41.31564 9548 ft 170 kts 75°
2026-04-26 20:38 -4.61317 -41.30813 9543 ft 170 kts 75°
2026-04-26 20:39 -4.60977 -41.29680 9550 ft 168 kts 75°
2026-04-26 20:39 -4.60641 -41.28560 9551 ft 168 kts 75°
2026-04-26 20:39 -4.60196 -41.27074 9549 ft 168 kts 75°
2026-04-26 20:39 -4.59970 -41.26318 9553 ft 168 kts 75°
2026-04-26 20:40 -4.59527 -41.24835 9556 ft 167 kts 75°
2026-04-26 20:40 -4.59305 -41.24096 9560 ft 167 kts 75°
2026-04-26 20:40 -4.58968 -41.22977 9555 ft 167 kts 75°
2026-04-26 20:40 -4.58634 -41.21857 9558 ft 167 kts 74°
2026-04-26 20:41 -4.58302 -41.20751 9551 ft 168 kts 74°
2026-04-26 20:41 -4.57967 -41.19631 9556 ft 168 kts 74°
2026-04-26 20:41 -4.57630 -41.18505 9553 ft 168 kts 74°
2026-04-26 20:41 -4.57292 -41.17377 9560 ft 169 kts 74°
2026-04-26 20:42 -4.56953 -41.16247 9561 ft 169 kts 74°
2026-04-26 20:42 -4.56615 -41.15118 9566 ft 169 kts 74°
2026-04-26 20:42 -4.56277 -41.13989 9560 ft 169 kts 74°
2026-04-26 20:42 -4.55943 -41.12875 9560 ft 169 kts 74°
2026-04-26 20:43 -4.55604 -41.11745 9561 ft 169 kts 74°
2026-04-26 20:43 -4.55266 -41.10616 9557 ft 169 kts 74°
2026-04-26 20:43 -4.54928 -41.09488 9562 ft 169 kts 74°
2026-04-26 20:43 -4.54590 -41.08360 9565 ft 169 kts 74°
2026-04-26 20:44 -4.54251 -41.07229 9570 ft 169 kts 74°
2026-04-26 20:44 -4.53912 -41.06099 9562 ft 169 kts 74°
2026-04-26 20:44 -4.53574 -41.04971 9569 ft 169 kts 74°
2026-04-26 20:44 -4.53236 -41.03845 9566 ft 169 kts 74°
2026-04-26 20:45 -4.52898 -41.02717 9574 ft 169 kts 74°
2026-04-26 20:45 -4.52560 -41.01591 9567 ft 169 kts 75°
2026-04-26 20:45 -4.52221 -41.00461 9574 ft 169 kts 75°
2026-04-26 20:45 -4.51889 -40.99349 9571 ft 169 kts 74°
2026-04-26 20:46 -4.51550 -40.98220 9564 ft 169 kts 74°
2026-04-26 20:46 -4.51211 -40.97093 9568 ft 169 kts 74°
2026-04-26 20:46 -4.50872 -40.95962 9567 ft 169 kts 74°
2026-04-26 20:46 -4.50535 -40.94836 9568 ft 169 kts 74°
2026-04-26 20:47 -4.50196 -40.93705 9566 ft 169 kts 74°
2026-04-26 20:47 -4.49971 -40.92956 9564 ft 169 kts 74°
2026-04-26 20:47 -4.49521 -40.91458 9565 ft 169 kts 75°
2026-04-26 20:47 -4.49184 -40.90334 9574 ft 168 kts 75°
2026-04-26 20:48 -4.48846 -40.89209 9568 ft 169 kts 74°
2026-04-26 20:48 -4.48508 -40.88080 9570 ft 169 kts 74°
2026-04-26 20:48 -4.48169 -40.86954 9567 ft 169 kts 75°
2026-04-26 20:48 -4.47831 -40.85826 9571 ft 168 kts 75°
2026-04-26 20:49 -4.47494 -40.84701 9568 ft 168 kts 75°
2026-04-26 20:49 -4.47160 -40.83590 9571 ft 169 kts 75°
2026-04-26 20:49 -4.46822 -40.82463 9573 ft 169 kts 75°
2026-04-26 20:49 -4.46484 -40.81338 9569 ft 168 kts 75°
2026-04-26 20:50 -4.46147 -40.80213 9573 ft 168 kts 75°
2026-04-26 20:50 -4.45809 -40.79088 9567 ft 169 kts 74°
2026-04-26 20:50 -4.45470 -40.77959 9573 ft 169 kts 75°
2026-04-26 20:50 -4.45130 -40.76825 9566 ft 170 kts 75°
2026-04-26 20:51 -4.44789 -40.75693 9574 ft 170 kts 75°
2026-04-26 20:51 -4.44454 -40.74575 9571 ft 169 kts 75°
2026-04-26 20:51 -4.44115 -40.73448 9569 ft 169 kts 74°
2026-04-26 20:51 -4.43776 -40.72320 9569 ft 169 kts 75°
2026-04-26 20:52 -4.43435 -40.71193 9567 ft 169 kts 75°
2026-04-26 20:52 -4.43097 -40.70065 9568 ft 169 kts 75°
2026-04-26 20:52 -4.42760 -40.68936 9571 ft 169 kts 75°
2026-04-26 20:52 -4.42422 -40.67809 9564 ft 169 kts 75°
2026-04-26 20:53 -4.42087 -40.66695 9574 ft 169 kts 75°
2026-04-26 20:53 -4.41749 -40.65568 9565 ft 169 kts 75°
2026-04-26 20:53 -4.41410 -40.64440 9573 ft 169 kts 75°
2026-04-26 20:53 -4.41069 -40.63309 9569 ft 169 kts 75°
2026-04-26 20:54 -4.40730 -40.62180 9572 ft 169 kts 76°
2026-04-26 20:54 -4.40393 -40.61054 9568 ft 169 kts 75°
2026-04-26 20:54 -4.40053 -40.59927 9573 ft 168 kts 75°
2026-04-26 20:54 -4.39715 -40.58801 9571 ft 169 kts 74°
2026-04-26 20:55 -4.39377 -40.57676 9571 ft 168 kts 75°
2026-04-26 20:55 -4.39044 -40.56567 9567 ft 168 kts 75°
2026-04-26 20:55 -4.38705 -40.55440 9563 ft 169 kts 75°
2026-04-26 20:55 -4.38366 -40.54313 9559 ft 169 kts 75°
2026-04-26 20:56 -4.38028 -40.53187 9565 ft 169 kts 75°
2026-04-26 20:56 -4.37689 -40.52060 9555 ft 169 kts 75°
2026-04-26 20:56 -4.37352 -40.50938 9561 ft 168 kts 75°
2026-04-26 20:56 -4.37014 -40.49812 9561 ft 168 kts 74°
2026-04-26 20:57 -4.36674 -40.48685 9568 ft 168 kts 75°
2026-04-26 20:57 -4.36340 -40.47573 9568 ft 168 kts 75°
2026-04-26 20:57 -4.36002 -40.46448 9558 ft 169 kts 75°
2026-04-26 20:57 -4.35662 -40.45319 9564 ft 169 kts 75°
2026-04-26 20:58 -4.35322 -40.44189 9561 ft 169 kts 75°
2026-04-26 20:58 -4.34981 -40.43057 9562 ft 170 kts 74°
2026-04-26 20:58 -4.34640 -40.41922 9566 ft 170 kts 75°
2026-04-26 20:58 -4.34303 -40.40800 9562 ft 170 kts 74°
2026-04-26 20:59 -4.33961 -40.39665 9558 ft 170 kts 74°
2026-04-26 20:59 -4.33619 -40.38526 9563 ft 170 kts 74°
2026-04-26 20:59 -4.33276 -40.37388 9562 ft 171 kts 75°
2026-04-26 20:59 -4.32934 -40.36252 9560 ft 170 kts 75°
2026-04-26 21:00 -4.32590 -40.35112 9563 ft 170 kts 75°
2026-04-26 21:00 -4.32249 -40.33974 9564 ft 170 kts 75°
2026-04-26 21:00 -4.31907 -40.32837 9564 ft 170 kts 75°
2026-04-26 21:00 -4.31565 -40.31699 9561 ft 170 kts 75°
2026-04-26 21:01 -4.31227 -40.30579 9564 ft 170 kts 75°
2026-04-26 21:01 -4.30883 -40.29436 9563 ft 171 kts 74°
2026-04-26 21:01 -4.30540 -40.28298 9560 ft 171 kts 74°
2026-04-26 21:01 -4.30198 -40.27160 9559 ft 170 kts 75°
2026-04-26 21:02 -4.29856 -40.26023 9556 ft 170 kts 74°
2026-04-26 21:02 -4.29513 -40.24886 9559 ft 170 kts 75°
2026-04-26 21:02 -4.29172 -40.23752 9561 ft 169 kts 74°
2026-04-26 21:02 -4.28836 -40.22635 9556 ft 169 kts 74°
2026-04-26 21:03 -4.28495 -40.21503 9564 ft 169 kts 74°
2026-04-26 21:03 -4.28155 -40.20374 9561 ft 169 kts 74°
2026-04-26 21:03 -4.27815 -40.19244 9563 ft 169 kts 74°
2026-04-26 21:03 -4.27475 -40.18115 9562 ft 169 kts 74°
2026-04-26 21:04 -4.27134 -40.16987 9558 ft 169 kts 74°
2026-04-26 21:04 -4.26795 -40.15860 9564 ft 169 kts 74°
2026-04-26 21:04 -4.26460 -40.14747 9556 ft 169 kts 74°
2026-04-26 21:04 -4.26120 -40.13617 9562 ft 169 kts 74°
2026-04-26 21:05 -4.25780 -40.12489 9558 ft 169 kts 74°
2026-04-26 21:05 -4.25440 -40.11360 9565 ft 169 kts 74°
2026-04-26 21:05 -4.25100 -40.10234 9561 ft 169 kts 74°
2026-04-26 21:05 -4.24760 -40.09104 9561 ft 169 kts 74°
2026-04-26 21:06 -4.24420 -40.07977 9566 ft 169 kts 74°
2026-04-26 21:06 -4.24080 -40.06848 9561 ft 169 kts 74°
2026-04-26 21:06 -4.23744 -40.05733 9563 ft 169 kts 74°
2026-04-26 21:06 -4.23405 -40.04606 9562 ft 169 kts 74°
2026-04-26 21:07 -4.23064 -40.03477 9568 ft 169 kts 74°
2026-04-26 21:07 -4.22725 -40.02351 9571 ft 169 kts 74°
2026-04-26 21:07 -4.22384 -40.01224 9570 ft 169 kts 74°
2026-04-26 21:07 -4.22045 -40.00098 9572 ft 169 kts 74°
2026-04-26 21:08 -4.21706 -39.98969 9570 ft 169 kts 74°
2026-04-26 21:08 -4.21366 -39.97842 9572 ft 169 kts 74°
2026-04-26 21:08 -4.21026 -39.96717 9568 ft 169 kts 74°
2026-04-26 21:08 -4.20687 -39.95593 9565 ft 169 kts 74°
2026-04-26 21:09 -4.20352 -39.94480 9562 ft 169 kts 74°
2026-04-26 21:09 -4.20012 -39.93354 9566 ft 169 kts 74°
2026-04-26 21:09 -4.19674 -39.92230 9560 ft 169 kts 74°
2026-04-26 21:09 -4.19333 -39.91103 9559 ft 169 kts 74°
2026-04-26 21:10 -4.18993 -39.89974 9568 ft 169 kts 74°
2026-04-26 21:10 -4.18654 -39.88849 9562 ft 169 kts 74°
2026-04-26 21:10 -4.18320 -39.87741 9567 ft 168 kts 74°
2026-04-26 21:10 -4.17980 -39.86617 9569 ft 168 kts 74°
2026-04-26 21:11 -4.17641 -39.85492 9569 ft 168 kts 74°
2026-04-26 21:11 -4.17302 -39.84368 9566 ft 169 kts 74°
2026-04-26 21:11 -4.16962 -39.83242 9572 ft 168 kts 74°
2026-04-26 21:11 -4.16622 -39.82114 9566 ft 169 kts 74°
2026-04-26 21:12 -4.16283 -39.80991 9571 ft 169 kts 74°
2026-04-26 21:12 -4.15947 -39.79878 9565 ft 168 kts 74°
2026-04-26 21:12 -4.15609 -39.78759 9571 ft 168 kts 74°
2026-04-26 21:12 -4.15273 -39.77643 9562 ft 167 kts 74°
2026-04-26 21:13 -4.14937 -39.76529 9564 ft 167 kts 74°
2026-04-26 21:13 -4.14598 -39.75408 9571 ft 168 kts 74°
2026-04-26 21:13 -4.14259 -39.74286 9567 ft 168 kts 74°
2026-04-26 21:13 -4.13922 -39.73166 9573 ft 168 kts 74°
2026-04-26 21:14 -4.13583 -39.72044 9568 ft 168 kts 74°
2026-04-26 21:14 -4.13245 -39.70924 9573 ft 168 kts 74°
2026-04-26 21:14 -4.12906 -39.69802 9572 ft 168 kts 74°
2026-04-26 21:14 -4.12567 -39.68681 9576 ft 168 kts 74°
2026-04-26 21:15 -4.12233 -39.67574 9568 ft 168 kts 74°
2026-04-26 21:15 -4.11895 -39.66451 9571 ft 168 kts 74°
2026-04-26 21:15 -4.11556 -39.65331 9566 ft 168 kts 75°
2026-04-26 21:15 -4.11219 -39.64215 9578 ft 167 kts 74°
2026-04-26 21:16 -4.10883 -39.63101 9578 ft 167 kts 74°
2026-04-26 21:16 -4.10546 -39.61985 9578 ft 167 kts 74°
2026-04-26 21:16 -4.10212 -39.60879 9577 ft 168 kts 74°
2026-04-26 21:16 -4.09874 -39.59761 9578 ft 168 kts 74°
2026-04-26 21:17 -4.09537 -39.58643 9575 ft 168 kts 74°
2026-04-26 21:17 -4.09199 -39.57522 9574 ft 168 kts 74°
2026-04-26 21:17 -4.08859 -39.56399 9571 ft 168 kts 74°
2026-04-26 21:17 -4.08525 -39.55297 9572 ft 167 kts 74°
2026-04-26 21:18 -4.08188 -39.54180 9567 ft 167 kts 74°
2026-04-26 21:18 -4.07852 -39.53068 9568 ft 167 kts 74°
2026-04-26 21:18 -4.07515 -39.51951 9570 ft 167 kts 74°
2026-04-26 21:18 -4.07177 -39.50833 9566 ft 168 kts 74°
2026-04-26 21:19 -4.06839 -39.49714 9575 ft 167 kts 74°
2026-04-26 21:19 -4.06501 -39.48596 9571 ft 166 kts 74°
2026-04-26 21:19 -4.06168 -39.47495 9569 ft 167 kts 74°
2026-04-26 21:19 -4.05831 -39.46379 9571 ft 167 kts 74°
2026-04-26 21:20 -4.05493 -39.45260 9570 ft 168 kts 74°
2026-04-26 21:20 -4.05155 -39.44141 9573 ft 168 kts 74°
2026-04-26 21:20 -4.04818 -39.43025 9567 ft 168 kts 74°
2026-04-26 21:20 -4.04478 -39.41903 9571 ft 168 kts 74°
2026-04-26 21:21 -4.04144 -39.40800 9575 ft 167 kts 74°
2026-04-26 21:21 -4.03807 -39.39683 9575 ft 167 kts 74°
2026-04-26 21:21 -4.03471 -39.38571 9573 ft 166 kts 74°
2026-04-26 21:21 -4.03134 -39.37458 9564 ft 167 kts 74°
2026-04-26 21:22 -4.02796 -39.36339 9571 ft 167 kts 74°
2026-04-26 21:22 -4.02463 -39.35237 9572 ft 168 kts 74°
2026-04-26 21:22 -4.02123 -39.34113 9571 ft 168 kts 74°
2026-04-26 21:23 -4.01442 -39.31862 9571 ft 169 kts 74°
2026-04-26 21:23 -4.01101 -39.30736 9566 ft 169 kts 74°
2026-04-26 21:23 -4.00761 -39.29610 9566 ft 169 kts 74°
2026-04-26 21:23 -4.00425 -39.28498 9565 ft 169 kts 74°
2026-04-26 21:24 -4.00084 -39.27373 9567 ft 169 kts 74°
2026-04-26 21:24 -3.99743 -39.26245 9572 ft 169 kts 74°
2026-04-26 21:24 -3.99403 -39.25120 9569 ft 169 kts 74°
2026-04-26 21:24 -3.99061 -39.23992 9563 ft 168 kts 74°
2026-04-26 21:25 -3.98721 -39.22867 9577 ft 168 kts 74°
2026-04-26 21:25 -3.98381 -39.21742 9573 ft 169 kts 74°
2026-04-26 21:25 -3.98045 -39.20632 9573 ft 169 kts 74°
2026-04-26 21:25 -3.97703 -39.19503 9570 ft 169 kts 74°
2026-04-26 21:26 -3.97363 -39.18378 9567 ft 169 kts 74°
2026-04-26 21:26 -3.97022 -39.17254 9574 ft 169 kts 74°
2026-04-26 21:26 -3.96681 -39.16128 9570 ft 169 kts 74°
2026-04-26 21:26 -3.96341 -39.15004 9574 ft 169 kts 74°
2026-04-26 21:27 -3.96116 -39.14260 9568 ft 168 kts 74°
2026-04-26 21:27 -3.95665 -39.12771 9571 ft 169 kts 74°
2026-04-26 21:27 -3.95324 -39.11645 9570 ft 169 kts 74°
2026-04-26 21:27 -3.95093 -39.10881 9571 ft 170 kts 75°
2026-04-26 21:28 -3.94751 -39.09751 9569 ft 170 kts 74°
2026-04-26 21:28 -3.94408 -39.08619 9570 ft 170 kts 75°
2026-04-26 21:28 -3.94070 -39.07500 9574 ft 170 kts 74°
2026-04-26 21:28 -3.93726 -39.06367 9574 ft 170 kts 74°
2026-04-26 21:29 -3.93383 -39.05235 9571 ft 170 kts 75°
2026-04-26 21:29 -3.93041 -39.04102 9573 ft 170 kts 74°
2026-04-26 21:29 -3.92697 -39.02967 9570 ft 170 kts 74°
2026-04-26 21:29 -3.92353 -39.01830 9569 ft 170 kts 75°
2026-04-26 21:30 -3.92009 -39.00698 9578 ft 170 kts 75°
2026-04-26 21:30 -3.91671 -38.99581 9577 ft 170 kts 75°
2026-04-26 21:30 -3.91328 -38.98447 9576 ft 170 kts 74°
2026-04-26 21:30 -3.90984 -38.97311 9570 ft 170 kts 74°
2026-04-26 21:31 -3.90639 -38.96173 9571 ft 170 kts 74°
2026-04-26 21:31 -3.90292 -38.95028 9493 ft 174 kts 75°
2026-04-26 21:31 -3.89942 -38.93865 9374 ft 178 kts 75°
2026-04-26 21:31 -3.89581 -38.92671 9249 ft 180 kts 74°
2026-04-26 21:32 -3.89216 -38.91471 9135 ft 180 kts 75°
2026-04-26 21:32 -3.88850 -38.90261 8934 ft 180 kts 75°
2026-04-26 21:32 -3.88486 -38.89075 8739 ft 176 kts 74°
2026-04-26 21:32 -3.88129 -38.87910 8539 ft 174 kts 75°
2026-04-26 21:33 -3.87582 -38.86833 8329 ft 175 kts 56°
2026-04-26 21:33 -3.86824 -38.85881 8132 ft 174 kts 53°
2026-04-26 21:33 -3.86061 -38.84935 7901 ft 175 kts 53°
2026-04-26 21:33 -3.85308 -38.83996 7662 ft 174 kts 53°
2026-04-26 21:34 -3.84549 -38.83056 7426 ft 173 kts 53°
2026-04-26 21:34 -3.83793 -38.82126 7188 ft 171 kts 53°
2026-04-26 21:34 -3.83035 -38.81204 6952 ft 171 kts 53°
2026-04-26 21:34 -3.82280 -38.80288 6722 ft 170 kts 53°
2026-04-26 21:35 -3.81523 -38.79376 6484 ft 170 kts 53°
2026-04-26 21:35 -3.80766 -38.78466 6242 ft 169 kts 53°
2026-04-26 21:35 -3.80010 -38.77560 6001 ft 169 kts 53°
2026-04-26 21:35 -3.79263 -38.76664 5763 ft 170 kts 53°
2026-04-26 21:36 -3.78505 -38.75755 5514 ft 170 kts 53°
2026-04-26 21:36 -3.77748 -38.74850 5271 ft 169 kts 53°
2026-04-26 21:36 -3.76991 -38.73950 5030 ft 168 kts 53°
2026-04-26 21:36 -3.76238 -38.73056 4789 ft 167 kts 53°
2026-04-26 21:37 -3.75489 -38.72166 4547 ft 167 kts 53°
2026-04-26 21:37 -3.74740 -38.71268 4299 ft 168 kts 55°
2026-04-26 21:37 -3.74133 -38.70284 4060 ft 165 kts 65°
2026-04-26 21:37 -3.73692 -38.69225 3814 ft 165 kts 75°
2026-04-26 21:38 -3.73452 -38.68120 3548 ft 163 kts 91°
2026-04-26 21:38 -3.73598 -38.67102 3182 ft 136 kts 108°
2026-04-26 21:38 -3.73882 -38.66243 2822 ft 131 kts 112°
2026-04-26 21:38 -3.74233 -38.65354 2528 ft 143 kts 113°
2026-04-26 21:39 -3.74563 -38.64403 2296 ft 145 kts 109°
2026-04-26 21:39 -3.74824 -38.63488 2087 ft 129 kts 107°
2026-04-26 21:39 -3.75058 -38.62680 1994 ft 117 kts 108°
2026-04-26 21:39 -3.75280 -38.61873 1880 ft 121 kts 104°
2026-04-26 21:40 -3.75508 -38.61036 1660 ft 125 kts 108°
2026-04-26 21:40 -3.75749 -38.60234 1461 ft 113 kts 107°
2026-04-26 21:40 -3.75958 -38.59488 1273 ft 110 kts 106°
2026-04-26 21:40 -3.76152 -38.58738 1054 ft 113 kts 104°
2026-04-26 21:41 -3.76361 -38.57992 877 ft 111 kts 105°
2026-04-26 21:41 -3.76561 -38.57246 776 ft 112 kts 104°
2026-04-26 21:41 -3.76759 -38.56505 648 ft 107 kts 105°
2026-04-26 21:41 -3.76954 -38.55782 505 ft 109 kts 104°
2026-04-26 21:42 -3.77145 -38.55068 288 ft 102 kts 100°
2026-04-26 21:42 -3.77317 -38.54431 134 ft 87 kts 102°
2026-04-26 21:42 -3.77458 -38.53903 94 ft 70 kts 103°
2026-04-26 21:42 -3.77531 -38.53605 90 ft 15 kts 78°
2026-04-26 21:43 -3.77484 -38.53559 90 ft 7 kts 18°
2026-04-26 21:43 -3.77426 -38.53542 91 ft 14 kts 12°
2026-04-26 21:43 -3.77373 -38.53636 90 ft 25 kts 286°
2026-04-26 21:43 -3.77309 -38.53718 90 ft 11 kts 12°
2026-04-26 21:44 -3.77298 -38.53698 90 ft 0 kts 105°